Regional Weather Roundup
Issued by NWS

Home | Current Version | Previous Version | Text Only | Print | Product List | Glossary On
Versions: 1 2 3 4 5 6 7 8 9 10 11 12 13 14 15 16 17 18 19 20 21 22 23 24 25 26 27
000
ASUS46 KPQR 171410
RWROR

OREGON REGIONAL WEATHER ROUNDUP
NATIONAL WEATHER SERVICE PORTLAND OR
600 AM PST SUN DEC 17 2017

NOTE: "FAIR" INDICATES FEW OR NO CLOUDS BELOW 12,000 FEET WITH
NO SIGNIFICANT WEATHER AND/OR OBSTRUCTIONS TO VISIBILITY.

ORZ001>013-171500-
NORTHWEST OREGON


CITY           SKY/WX    TMP DP  RH WIND       PRES   REMARKS
ASTORIA        CLOUDY    47  45  93 S8        30.18F FOG
NEWPORT        CLOUDY    43  43 100 SE6       30.27F
PORTLAND       DRIZZLE   42  40  92 E7        30.26F
VANCOUVER WA   CLOUDY    42  41  96 SE7       30.25F FOG
SCAPPOOSE      CLOUDY    40  40 100 CALM      30.25S FOG
HILLSBORO      CLOUDY    40  38  93 E3        30.24F FOG
AURORA         CLOUDY    40  38  93 SE3       30.27S
MCMINNVILLE    CLOUDY    40  40 100 E3        30.25F FOG
SALEM          CLOUDY    41  36  82 S6        30.25S
CORVALLIS      CLOUDY    37  36  96 CALM      30.27F
EUGENE         CLOUDY    35  35 100 S7        30.28S WCI  29
$$

ORZ021-028-171500-
SOUTHWEST OREGON


CITY           SKY/WX    TMP DP  RH WIND       PRES   REMARKS
NORTH BEND     PTCLDY    37  36  96 E3        30.28R
BROOKINGS      CLEAR     43  33  68 CALM      30.18S
ROSEBURG       CLOUDY    35  35 100 CALM      30.30R FOG
SEXTON SUMMIT  CLEAR     33  20  58 SE9       30.18R WCI  25
GRANTS PASS    FOG       28  28 100 CALM      30.32F VSB 1/4
MEDFORD        CLEAR     26  24  92 CALM      30.29S
$$

ORZ014>016-041-171500-
COLUMBIA GORGE


CITY           SKY/WX    TMP DP  RH WIND       PRES   REMARKS
TROUTDALE      CLOUDY    42  39  89 CALM      30.27R
THE DALLES     PTCLDY    34  32  92 CALM      30.23F
$$

ORZ029>031-041-044-049-050-061>064-502-503-505>511-171500-
EASTERN OREGON


CITY           SKY/WX    TMP DP  RH WIND       PRES   REMARKS
MADRAS         NOT AVBL
REDMOND        CLOUDY    30  22  72 E5        30.19S WCI  25
BEND           CLOUDY    28  21  74 SE7       30.20F WCI  21
PRINEVILLE     CLOUDY    30  23  74 S8        30.21S WCI  23
KLAMATH FALLS  CLEAR     16  13  88 NW3       30.23F
LAKEVIEW       CLOUDY    15  13  91 CALM      30.22S
HERMISTON      CLOUDY    31  31 100 CALM      30.20S FOG
PENDLETON      CLOUDY    35  28  75 S7        30.18S WCI  29
JOHN DAY       CLOUDY    26  21  84 E7        30.19S WCI  18
MEACHAM        CLOUDY    25  22  88 CALM      30.13S
LA GRANDE      CLOUDY    22  20  92 NW6       30.22R WCI  14
BAKER CITY     MOCLDY    21  16  81 CALM      30.19F
BURNS          CLOUDY    11   9  92 CALM      30.22F
ROME             N/A      8   5  87 SE7       30.23S WCI  -3
ONTARIO        CLOUDY    22  19  89 N3        30.30S
$$




USA.gov is the U.S. government's official web portal to all federal, state and local government web resources and services.